Regional Weather Roundup
Issued by NWS Newport/Morehead, NC

Current Version | Previous Version | Graphics & Text | Print | Product List | Glossary Off
Versions: 1 2 3 4 5 6 7 8 9 10 11 12 13 14 15 16 17 18 19 20 21 22 23 24 25 26 27 28 29 30 31 32 33 34 35 36 37 38 39 40 41 42 43 44 45 46 47 48 49 50

000
ASUS42 KMHX 061025
RWRMHX
WEATHER ROUNDUP FOR EASTERN NORTH CAROLINA
NATIONAL WEATHER SERVICE NEWPORT/MOREHEAD CITY NC
600 AM EDT MON JUL 06 2015

NOTE: "FAIR" INDICATES FEW OR NO CLOUDS BELOW 12,000 FEET
WITH NO SIGNIFICANT WEATHER AND/OR OBSTRUCTIONS TO VISIBILITY

NCZ015>017-031-032-045>047-102-103-061100-
NORTH COAST

CITY           SKY/WX    TMP DP  RH WIND       PRES   REMARKS
EDENTON        PTCLDY    75  72  91 S6        30.13R
ELIZABETH CITY PTCLDY    71  69  93 CALM      30.13R
KITTY HAWK     PTSUNNY   77  74  90 SW5       30.12S
MANTEO         MOCLDY    77  75  92 SW7       30.14R

$$

NCZ045>047-081-094-103-104-061100-
CENTRAL COAST

CITY           SKY/WX    TMP DP  RH WIND       PRES   REMARKS
FRISCO         PTCLDY    76  75  97 SW6       30.15R
SWANQUARTER      N/A     79 N/A N/A SW8G15    30.09S

$$

NCZ095-097-098-100-101-061100-
SOUTHERN COAST

CITY           SKY/WX    TMP DP  RH WIND       PRES   REMARKS
BEAUFORT       PTCLDY    79  76  90 SW12      30.14R
CEDAR ISLAND     N/A     77 N/A N/A S2        30.18S
JACKSONVILLE   PTCLDY    75  70  84 S5        30.12R
PINEY ISLAND   MOSUNNY  N/A N/A N/A S3        30.14R
WILMINGTON     PTCLDY    77  72  84 S7        30.12R


$$

NCZ011>013-027>030-043-044-078>080-089-090>093-098-061100-
COASTAL PLAIN

CITY           SKY/WX    TMP DP  RH WIND       PRES   REMARKS
AHOSKIE        PTCLDY   N/A N/A N/A CALM      30.12R
CLINTON        MOCLDY    74  74 100 S3        30.11S FOG
ELIZABETHTOWN  PTCLDY    74  74 100 CALM      30.11S
GOLDSBORO      CLOUDY    74  74  99 SE5       30.10R
GREENVILLE     CLOUDY    73  73 100 S7        30.13R
HAVELOCK       MOCLDY    75  71  87 SW16      30.15R
KENANSVILLE    CLOUDY    74  73  95 CALM      30.13R FOG
KINSTON        CLOUDY    75  74  95 S7        30.13R FOG
NEW BERN       CLEAR     76  74  93 S6        30.14R
RICHLANDS      PTCLDY    73  70  88 S5        30.13R
ROCKY MOUNT    CLOUDY    72  71  97 CALM      30.11R
WASHINGTON     PTCLDY    75  73  93 S5        30.14R
WHITEVILLE     PTCLDY    74  72  93 S3        30.11S

$$

AMZ130-135-150-152-154-156-158-170-250-252-270-ANZ085-086-088-633-658-670-061100-
MARINE OBSERVATIONS

STATION/POSITION TIME  TEMP    WIND        PRES    WAVE   SWELL
                       AIR SEA DIR/SP/G            HT/PER HT/PER
                 (UTC) (F)     (DEG/KT/KT) (MB)    (FT/S) (FT/S)
CHESAPEAKE LIGHT 1000   76      70/ 14/ 16 1020.3
64 E VA BEACH    0950   77 77  220/  6/  8 1019.6    3/ 9   2/ 9
DUCK             1000   78 77  230/ 10/ 12   N/A
2 E DUCK         0911      78                N/A     2/ 7
OREGON INLET     1000   79 81  230/ 11/ 12 1020.4
13E OREGON INLT  1000      78                N/A     3/ 4
HATTERAS CG      1000   78 79  220/  4/  6 1020.5
DIAMOND BUOY     0950   80 81  240/ 10/ 12 1020.7    3/ 8   2/ 8
CAPE LOOKOUT     1000   79     210/  6/  8 1020.2
BEAUFORT LAB     1000   80 81  200/ 10/ 12 1019.7
30 SE NEW RVR IN NOT AVBL
27 SE WRIGHTSVLE 1000      79  250/ 10/ 10   N/A
5 SE WRIGHTSVLE  0908   76 78  190/ 14/ 19 1019.9
225 S CAPE HAT   0950   80 80  220/ 10/ 12 1022.3    4/ 8   3/ 8
41 SE CHARLESTON 0950   80 81  230/  8/ 10 1019.5    3/ 9   3/ 9

$$



USA.gov is the U.S. government's official web portal to all federal, state and local government web resources and services.